User: anonymous   Login
Location: Ellerstadt
(49.4644°N, 8.2615°E)
Time: 10:39:29
(UTC+00:00)
Language:

FALCON 9 DEB - Orbit

View from above orbital plane
View from above orbital plane
View from above satellite
View from above satellite

Ground track
Ground track

The orbit data is extracted from the following two-line orbital elements,

1 46086U 20055BM  21137.89344481  .00011347  00000-0  11882-3 0  9990
2 46086  53.0087 345.9934 0014117 129.5754 230.6509 15.64893668 48905
Epoch (UTC): 17 May 2021 21:26:33
Eccentricity: 0.0014117
inclination: 53.0087°
perigee height: 364 km
apogee height: 383 km
right ascension of ascending node: 345.9934°
argument of perigee: 129.5754°
revolutions per day: 15.64893668
mean anomaly at epoch: 230.6509°
orbit number at epoch: 4890

The dashed part of the orbit path shows where the satellite is in the earth's shadow,  

DLR